Time,TemperatureF,DewpointF,PressureIn,WindDirection,WindDirectionDegrees,WindSpeedMPH,WindSpeedGustMPH,Humidity,HourlyPrecipIn,Conditions,Clouds,dailyrainin,SoftwareType,DateUTC
2013-04-15 00:02:00,60.0,23.0,29.73,SW,233,5.0,-999.0,24,-99.99,,,-99.99,,2013-04-15 06:02:00,
2013-04-15 00:12:00,60.0,23.0,29.73,SW,233,5.0,-999.0,24,-99.99,,,-99.99,,2013-04-15 06:12:00,
2013-04-15 00:22:00,60.0,24.0,29.73,SW,230,6.0,-999.0,25,-99.99,,,-99.99,,2013-04-15 06:22:00,
2013-04-15 00:33:00,60.0,25.0,29.74,SW,223,6.0,-999.0,26,-99.99,,,-99.99,,2013-04-15 06:33:00,
2013-04-15 00:42:00,60.0,25.0,29.74,SW,223,6.0,-999.0,26,-99.99,,,-99.99,,2013-04-15 06:42:00,
2013-04-15 00:52:00,60.0,25.0,29.74,WSW,240,7.0,-999.0,26,-99.99,,,-99.99,,2013-04-15 06:52:00,
2013-04-15 01:02:00,59.0,24.0,29.74,WSW,254,8.0,-999.0,26,-99.99,,,-99.99,,2013-04-15 07:02:00,
2013-04-15 01:41:00,59.0,24.0,29.73,WSW,257,11.0,-999.0,26,-99.99,,,-99.99,,2013-04-15 07:41:00,
2013-04-15 01:42:00,59.0,24.0,29.73,WSW,244,11.0,-999.0,26,-99.99,,,-99.99,,2013-04-15 07:42:00,
2013-04-15 01:53:00,59.0,24.0,29.73,WSW,242,10.0,-999.0,26,-99.99,,,-99.99,,2013-04-15 07:53:00,
2013-04-15 02:02:00,58.0,24.0,29.73,WSW,238,9.0,-999.0,27,-99.99,,,-99.99,,2013-04-15 08:02:00,
2013-04-15 02:13:00,58.0,24.0,29.73,WSW,238,9.0,-999.0,27,-99.99,,,-99.99,,2013-04-15 08:13:00,
2013-04-15 02:22:00,58.0,24.0,29.74,SSW,213,8.0,-999.0,27,-99.99,,,-99.99,,2013-04-15 08:22:00,
2013-04-15 02:33:00,57.0,23.0,29.75,SSW,194,6.0,-999.0,27,-99.99,,,-99.99,,2013-04-15 08:33:00,
2013-04-15 02:42:00,57.0,23.0,29.75,SSW,194,6.0,-999.0,27,-99.99,,,-99.99,,2013-04-15 08:42:00,
2013-04-15 02:52:00,57.0,24.0,29.75,South,188,4.0,-999.0,28,-99.99,,,-99.99,,2013-04-15 08:52:00,
2013-04-15 03:02:00,57.0,24.0,29.75,South,188,5.0,-999.0,28,-99.99,,,-99.99,,2013-04-15 09:02:00,
2013-04-15 03:12:00,57.0,24.0,29.75,South,188,5.0,-999.0,28,-99.99,,,-99.99,,2013-04-15 09:12:00,
2013-04-15 03:22:00,56.0,23.0,29.76,South,169,4.0,-999.0,28,-99.99,,,-99.99,,2013-04-15 09:22:00,
2013-04-15 03:32:00,55.0,23.0,29.76,South,169,1.0,-999.0,29,-99.99,,,-99.99,,2013-04-15 09:32:00,
2013-04-15 03:42:00,55.0,23.0,29.76,South,169,1.0,-999.0,29,-99.99,,,-99.99,,2013-04-15 09:42:00,
2013-04-15 03:53:00,54.0,22.0,29.76,South,169,0.0,-999.0,29,-99.99,,,-99.99,,2013-04-15 09:53:00,
2013-04-15 04:02:00,52.0,22.0,29.77,South,170,1.0,-999.0,30,-99.99,,,-99.99,,2013-04-15 10:02:00,
2013-04-15 04:13:00,52.0,22.0,29.77,South,170,1.0,-999.0,30,-99.99,,,-99.99,,2013-04-15 10:13:00,
2013-04-15 04:23:00,50.0,21.0,29.77,WSW,246,2.0,-999.0,31,-99.99,,,-99.99,,2013-04-15 10:23:00,
2013-04-15 04:33:00,48.0,20.0,29.77,WSW,246,2.0,-999.0,33,-99.99,,,-99.99,,2013-04-15 10:33:00,
2013-04-15 04:42:00,48.0,20.0,29.77,WSW,246,2.0,-999.0,33,-99.99,,,-99.99,,2013-04-15 10:42:00,
2013-04-15 04:53:00,51.0,22.0,29.77,SSW,193,6.0,-999.0,32,-99.99,,,-99.99,,2013-04-15 10:53:00,
2013-04-15 05:03:00,53.0,22.0,29.77,SSW,199,8.0,-999.0,30,-99.99,,,-99.99,,2013-04-15 11:03:00,
2013-04-15 05:12:00,53.0,22.0,29.77,SSW,199,8.0,-999.0,30,-99.99,,,-99.99,,2013-04-15 11:12:00,
2013-04-15 05:22:00,53.0,22.0,29.76,SW,219,7.0,-999.0,30,-99.99,,,-99.99,,2013-04-15 11:22:00,
2013-04-15 05:32:00,53.0,22.0,29.77,SW,220,7.0,-999.0,30,-99.99,,,-99.99,,2013-04-15 11:32:00,
2013-04-15 05:42:00,53.0,22.0,29.77,SW,220,7.0,-999.0,30,-99.99,,,-99.99,,2013-04-15 11:42:00,
2013-04-15 05:53:00,53.0,22.0,29.77,SW,232,5.0,-999.0,30,-99.99,,,-99.99,,2013-04-15 11:53:00,
2013-04-15 06:04:00,52.0,22.0,29.78,South,182,5.0,-999.0,30,-99.99,,,-99.99,,2013-04-15 12:04:00,
2013-04-15 06:14:00,52.0,22.0,29.78,South,182,5.0,-999.0,30,-99.99,,,-99.99,,2013-04-15 12:14:00,
2013-04-15 06:23:00,51.0,21.0,29.78,SSW,205,5.0,-999.0,31,-99.99,,,-99.99,,2013-04-15 12:23:00,
2013-04-15 06:33:00,50.0,21.0,29.79,SW,234,4.0,-999.0,32,-99.99,,,-99.99,,2013-04-15 12:33:00,
2013-04-15 06:43:00,50.0,21.0,29.79,SW,234,4.0,-999.0,32,-99.99,,,-99.99,,2013-04-15 12:43:00,
2013-04-15 06:53:00,48.0,20.0,29.80,SW,232,2.0,-999.0,33,-99.99,,,-99.99,,2013-04-15 12:53:00,
2013-04-15 07:03:00,47.0,21.0,29.80,SW,219,2.0,-999.0,35,-99.99,,,-99.99,,2013-04-15 13:03:00,
2013-04-15 07:12:00,47.0,21.0,29.80,SW,219,2.0,-999.0,35,-99.99,,,-99.99,,2013-04-15 13:12:00,
2013-04-15 07:23:00,48.0,21.0,29.80,SW,236,3.0,-999.0,34,-99.99,,,-99.99,,2013-04-15 13:23:00,
2013-04-15 07:33:00,51.0,22.0,29.81,SW,216,5.0,-999.0,32,-99.99,,,-99.99,,2013-04-15 13:33:00,
2013-04-15 07:43:00,51.0,22.0,29.81,SW,216,5.0,-999.0,32,-99.99,,,-99.99,,2013-04-15 13:43:00,
2013-04-15 07:54:00,53.0,22.0,29.82,SW,219,3.0,-999.0,30,-99.99,,,-99.99,,2013-04-15 13:54:00,
2013-04-15 08:04:00,55.0,23.0,29.82,SSE,165,4.0,-999.0,28,-99.99,,,-99.99,,2013-04-15 14:04:00,
2013-04-15 08:12:00,55.0,23.0,29.82,SSE,165,4.0,-999.0,28,-99.99,,,-99.99,,2013-04-15 14:12:00,
2013-04-15 08:22:00,56.0,23.0,29.82,SSW,206,3.0,-999.0,27,-99.99,,,-99.99,,2013-04-15 14:22:00,
2013-04-15 08:33:00,57.0,22.0,29.82,South,182,6.0,-999.0,26,-99.99,,,-99.99,,2013-04-15 14:33:00,
2013-04-15 08:44:00,57.0,22.0,29.82,South,182,6.0,-999.0,26,-99.99,,,-99.99,,2013-04-15 14:44:00,
2013-04-15 08:54:00,58.0,23.0,29.82,SSW,207,7.0,-999.0,26,-99.99,,,-99.99,,2013-04-15 14:54:00,
2013-04-15 09:03:00,59.0,24.0,29.81,South,171,7.0,-999.0,26,-99.99,,,-99.99,,2013-04-15 15:03:00,
2013-04-15 09:13:00,59.0,24.0,29.81,South,171,7.0,-999.0,26,-99.99,,,-99.99,,2013-04-15 15:13:00,
2013-04-15 09:23:00,61.0,26.0,29.81,SSW,206,7.0,-999.0,26,-99.99,,,-99.99,,2013-04-15 15:23:00,
2013-04-15 09:34:00,62.0,26.0,29.80,South,181,9.0,-999.0,25,-99.99,,,-99.99,,2013-04-15 15:34:00,
2013-04-15 09:43:00,62.0,26.0,29.80,South,181,9.0,-999.0,25,-99.99,,,-99.99,,2013-04-15 15:43:00,
2013-04-15 10:04:00,64.0,26.0,29.80,SSW,204,9.0,-999.0,24,-99.99,,,-99.99,,2013-04-15 16:04:00,
2013-04-15 10:13:00,64.0,26.0,29.80,SSW,204,9.0,-999.0,24,-99.99,,,-99.99,,2013-04-15 16:13:00,
2013-04-15 10:24:00,64.0,25.0,29.80,SSW,209,10.0,-999.0,23,-99.99,,,-99.99,,2013-04-15 16:24:00,
2013-04-15 10:33:00,65.0,25.0,29.80,South,190,9.0,-999.0,22,-99.99,,,-99.99,,2013-04-15 16:33:00,
2013-04-15 10:44:00,65.0,25.0,29.80,South,190,9.0,-999.0,22,-99.99,,,-99.99,,2013-04-15 16:44:00,
2013-04-15 10:54:00,65.0,25.0,29.80,SSW,198,11.0,-999.0,22,-99.99,,,-99.99,,2013-04-15 16:54:00,
2013-04-15 11:03:00,66.0,25.0,29.80,SSW,192,10.0,-999.0,21,-99.99,,,-99.99,,2013-04-15 17:03:00,
2013-04-15 11:14:00,66.0,25.0,29.80,SSW,192,10.0,-999.0,21,-99.99,,,-99.99,,2013-04-15 17:14:00,
2013-04-15 11:22:00,67.0,25.0,29.80,SW,215,10.0,-999.0,20,-99.99,,,-99.99,,2013-04-15 17:22:00,
2013-04-15 11:33:00,68.0,23.0,29.80,South,173,10.0,-999.0,18,-99.99,,,-99.99,,2013-04-15 17:33:00,
2013-04-15 11:43:00,68.0,23.0,29.80,South,173,10.0,-999.0,18,-99.99,,,-99.99,,2013-04-15 17:43:00,
2013-04-15 11:52:00,68.0,22.0,29.79,SW,227,10.0,-999.0,17,-99.99,,,-99.99,,2013-04-15 17:52:00,
2013-04-15 12:03:00,69.0,24.0,29.78,South,175,9.0,-999.0,18,-99.99,,,-99.99,,2013-04-15 18:03:00,
2013-04-15 12:12:00,69.0,24.0,29.78,South,175,9.0,-999.0,18,-99.99,,,-99.99,,2013-04-15 18:12:00,
2013-04-15 12:23:00,70.0,23.0,29.78,SSW,195,8.0,-999.0,17,-99.99,,,-99.99,,2013-04-15 18:23:00,
2013-04-15 12:32:00,70.0,23.0,29.77,SE,143,10.0,-999.0,17,-99.99,,,-99.99,,2013-04-15 18:32:00,
2013-04-15 12:42:00,70.0,23.0,29.77,SE,143,10.0,-999.0,17,-99.99,,,-99.99,,2013-04-15 18:42:00,
2013-04-15 12:52:00,71.0,24.0,29.76,SE,137,9.0,-999.0,17,-99.99,,,-99.99,,2013-04-15 18:52:00,
2013-04-15 13:02:00,72.0,22.0,29.75,SW,227,7.0,-999.0,15,-99.99,,,-99.99,,2013-04-15 19:02:00,
2013-04-15 13:12:00,72.0,22.0,29.75,SW,227,7.0,-999.0,15,-99.99,,,-99.99,,2013-04-15 19:12:00,
2013-04-15 13:22:00,72.0,22.0,29.75,WSW,243,11.0,-999.0,15,-99.99,,,-99.99,,2013-04-15 19:22:00,
2013-04-15 13:35:00,73.0,21.0,29.74,SW,217,10.0,-999.0,14,-99.99,,,-99.99,,2013-04-15 19:35:00,
2013-04-15 13:50:00,73.0,21.0,29.74,SW,217,10.0,-999.0,14,-99.99,,,-99.99,,2013-04-15 19:50:00,
2013-04-15 14:01:00,74.0,22.0,29.72,South,190,7.0,-999.0,14,-99.99,,,-99.99,,2013-04-15 20:01:00,
2013-04-15 14:02:00,75.0,21.0,29.71,SW,223,6.0,-999.0,13,-99.99,,,-99.99,,2013-04-15 20:02:00,
2013-04-15 14:11:00,75.0,21.0,29.71,SW,223,6.0,-999.0,13,-99.99,,,-99.99,,2013-04-15 20:11:00,
2013-04-15 14:22:00,76.0,22.0,29.70,SSW,202,7.0,-999.0,13,-99.99,,,-99.99,,2013-04-15 20:22:00,
2013-04-15 14:32:00,76.0,20.0,29.69,South,188,8.0,-999.0,12,-99.99,,,-99.99,,2013-04-15 20:32:00,
2013-04-15 14:42:00,76.0,20.0,29.69,South,188,8.0,-999.0,12,-99.99,,,-99.99,,2013-04-15 20:42:00,
2013-04-15 14:52:00,77.0,20.0,29.67,WSW,240,7.0,-999.0,12,-99.99,,,-99.99,,2013-04-15 20:52:00,
2013-04-15 15:02:00,78.0,19.0,29.67,SSW,203,9.0,-999.0,11,-99.99,,,-99.99,,2013-04-15 21:02:00,
2013-04-15 15:12:00,78.0,19.0,29.67,SSW,203,9.0,-999.0,11,-99.99,,,-99.99,,2013-04-15 21:12:00,
2013-04-15 15:22:00,79.0,15.0,29.65,WSW,238,8.0,-999.0,9,-99.99,,,-99.99,,2013-04-15 21:22:00,
2013-04-15 15:32:00,81.0,14.0,29.64,SW,235,14.0,-999.0,8,-99.99,,,-99.99,,2013-04-15 21:32:00,
2013-04-15 15:42:00,81.0,14.0,29.64,SW,235,14.0,-999.0,8,-99.99,,,-99.99,,2013-04-15 21:42:00,
2013-04-15 15:53:00,80.0,13.0,29.64,South,190,13.0,-999.0,8,-99.99,,,-99.99,,2013-04-15 21:53:00,
2013-04-15 16:02:00,81.0,14.0,29.63,WSW,249,12.0,-999.0,8,-99.99,,,-99.99,,2013-04-15 22:02:00,
2013-04-15 16:13:00,81.0,14.0,29.63,WSW,249,12.0,-999.0,8,-99.99,,,-99.99,,2013-04-15 22:13:00,
2013-04-15 16:23:00,81.0,14.0,29.63,West,259,15.0,-999.0,8,-99.99,,,-99.99,,2013-04-15 22:23:00,
2013-04-15 16:33:00,81.0,11.0,29.62,West,259,15.0,-999.0,7,-99.99,,,-99.99,,2013-04-15 22:33:00,
2013-04-15 16:42:00,81.0,11.0,29.62,West,259,15.0,-999.0,7,-99.99,,,-99.99,,2013-04-15 22:42:00,
2013-04-15 16:52:00,81.0,11.0,29.63,West,281,16.0,-999.0,7,-99.99,,,-99.99,,2013-04-15 22:52:00,
2013-04-15 17:02:00,80.0,10.0,29.63,SW,222,15.0,-999.0,7,-99.99,,,-99.99,,2013-04-15 23:02:00,
2013-04-15 17:12:00,80.0,10.0,29.63,SW,222,15.0,-999.0,7,-99.99,,,-99.99,,2013-04-15 23:12:00,
2013-04-15 17:22:00,80.0,10.0,29.63,SW,236,16.0,-999.0,7,-99.99,,,-99.99,,2013-04-15 23:22:00,
2013-04-15 17:32:00,79.0,13.0,29.64,WSW,256,15.0,-999.0,8,-99.99,,,-99.99,,2013-04-15 23:32:00,
2013-04-15 17:42:00,79.0,13.0,29.64,WSW,256,15.0,-999.0,8,-99.99,,,-99.99,,2013-04-15 23:42:00,
2013-04-15 17:52:00,79.0,13.0,29.64,West,269,15.0,-999.0,8,-99.99,,,-99.99,,2013-04-15 23:52:00,
2013-04-15 18:02:00,78.0,15.0,29.65,West,277,15.0,-999.0,9,-99.99,,,-99.99,,2013-04-16 00:02:00,
2013-04-15 18:12:00,78.0,15.0,29.65,West,277,15.0,-999.0,9,-99.99,,,-99.99,,2013-04-16 00:12:00,
2013-04-15 18:22:00,78.0,12.0,29.65,West,273,16.0,-999.0,8,-99.99,,,-99.99,,2013-04-16 00:22:00,
2013-04-15 18:32:00,77.0,14.0,29.66,WSW,248,16.0,-999.0,9,-99.99,,,-99.99,,2013-04-16 00:32:00,
2013-04-15 18:42:00,77.0,14.0,29.66,WSW,248,16.0,-999.0,9,-99.99,,,-99.99,,2013-04-16 00:42:00,
2013-04-15 18:52:00,76.0,13.0,29.66,SW,223,17.0,-999.0,9,-99.99,,,-99.99,,2013-04-16 00:52:00,
2013-04-15 19:02:00,76.0,13.0,29.67,West,259,16.0,-999.0,9,-99.99,,,-99.99,,2013-04-16 01:02:00,
2013-04-15 19:12:00,74.0,14.0,29.67,West,266,15.0,-999.0,10,-99.99,,,-99.99,,2013-04-16 01:12:00,
2013-04-15 19:22:00,74.0,14.0,29.67,West,266,15.0,-999.0,10,-99.99,,,-99.99,,2013-04-16 01:22:00,
2013-04-15 19:32:00,73.0,15.0,29.69,WSW,251,13.0,-999.0,11,-99.99,,,-99.99,,2013-04-16 01:32:00,
2013-04-15 19:42:00,73.0,15.0,29.69,WSW,251,13.0,-999.0,11,-99.99,,,-99.99,,2013-04-16 01:42:00,
2013-04-15 19:52:00,72.0,17.0,29.70,SW,234,11.0,-999.0,12,-99.99,,,-99.99,,2013-04-16 01:52:00,
2013-04-15 20:02:00,71.0,16.0,29.70,WSW,247,10.0,-999.0,12,-99.99,,,-99.99,,2013-04-16 02:02:00,
2013-04-15 20:12:00,71.0,16.0,29.70,WSW,247,10.0,-999.0,12,-99.99,,,-99.99,,2013-04-16 02:12:00,
2013-04-15 20:22:00,70.0,17.0,29.72,SW,226,9.0,-999.0,13,-99.99,,,-99.99,,2013-04-16 02:22:00,
2013-04-15 20:32:00,70.0,15.0,29.73,SW,225,10.0,-999.0,12,-99.99,,,-99.99,,2013-04-16 02:32:00,
2013-04-15 20:42:00,70.0,15.0,29.73,SW,225,10.0,-999.0,12,-99.99,,,-99.99,,2013-04-16 02:42:00,
2013-04-15 20:52:00,69.0,14.0,29.74,SW,234,8.0,-999.0,12,-99.99,,,-99.99,,2013-04-16 02:52:00,
2013-04-15 21:02:00,68.0,14.0,29.75,SW,228,8.0,-999.0,12,-99.99,,,-99.99,,2013-04-16 03:02:00,
2013-04-15 21:12:00,68.0,14.0,29.75,SW,228,8.0,-999.0,12,-99.99,,,-99.99,,2013-04-16 03:12:00,
2013-04-15 21:22:00,68.0,15.0,29.76,WSW,238,8.0,-999.0,13,-99.99,,,-99.99,,2013-04-16 03:22:00,
2013-04-15 21:33:00,67.0,16.0,29.77,WSW,247,6.0,-999.0,14,-99.99,,,-99.99,,2013-04-16 03:33:00,
2013-04-15 21:43:00,67.0,16.0,29.77,WSW,247,6.0,-999.0,14,-99.99,,,-99.99,,2013-04-16 03:43:00,
2013-04-15 21:52:00,66.0,17.0,29.77,WSW,250,7.0,-999.0,15,-99.99,,,-99.99,,2013-04-16 03:52:00,
2013-04-15 22:03:00,65.0,16.0,29.78,WSW,245,5.0,-999.0,15,-99.99,,,-99.99,,2013-04-16 04:03:00,
2013-04-15 22:12:00,65.0,16.0,29.78,WSW,245,5.0,-999.0,15,-99.99,,,-99.99,,2013-04-16 04:12:00,
2013-04-15 22:23:00,64.0,17.0,29.78,WSW,250,4.0,-999.0,16,-99.99,,,-99.99,,2013-04-16 04:23:00,
2013-04-15 22:33:00,62.0,17.0,29.79,WSW,252,3.0,-999.0,17,-99.99,,,-99.99,,2013-04-16 04:33:00,
2013-04-15 22:42:00,62.0,17.0,29.79,WSW,252,3.0,-999.0,17,-99.99,,,-99.99,,2013-04-16 04:42:00,
2013-04-15 22:53:00,61.0,17.0,29.79,WSW,257,5.0,-999.0,18,-99.99,,,-99.99,,2013-04-16 04:53:00,
2013-04-15 23:02:00,60.0,16.0,29.80,WSW,254,4.0,-999.0,18,-99.99,,,-99.99,,2013-04-16 05:02:00,
2013-04-15 23:12:00,60.0,16.0,29.80,WSW,254,4.0,-999.0,18,-99.99,,,-99.99,,2013-04-16 05:12:00,
2013-04-15 23:22:00,60.0,18.0,29.80,WSW,257,5.0,-999.0,19,-99.99,,,-99.99,,2013-04-16 05:22:00,
2013-04-15 23:32:00,59.0,18.0,29.80,West,274,5.0,-999.0,20,-99.99,,,-99.99,,2013-04-16 05:32:00,
2013-04-15 23:42:00,59.0,18.0,29.80,West,274,5.0,-999.0,20,-99.99,,,-99.99,,2013-04-16 05:42:00,
2013-04-15 23:52:00,58.0,17.0,29.79,WSW,258,5.0,-999.0,20,-99.99,,,-99.99,,2013-04-16 05:52:00,